Regional Weather Roundup
Issued by NWS

Home | Current Version | Previous Version | Text Only | Print | Product List | Glossary Off
Versions: 1 2 3 4 5 6 7 8 9 10 11 12 13 14 15 16 17 18 19 20 21 22 23 24 25 26 27

000
ASUS45 KSLC 181510
RWRUT

UTAH REGIONAL WEATHER ROUNDUP
NATIONAL WEATHER SERVICE SALT LAKE CITY UT
800 AM MST SUN FEB 18 2018

UTZ001>011-023>025-181600-

NORTHERN UTAH

CITY           SKY/WX    TMP DP  RH WIND       PRES   REMARKS
BRIGHAM CITY   CLOUDY    47  24  39 CALM      29.57F
HILL AFB       NOT AVBL
LOGAN          CLOUDY    45  30  55 W8        29.57R
OGDEN          CLOUDY    49  16  26 S20       29.55S
SALT LAKE CITY CLOUDY    52  14  22 S26G37    29.58S
TOOELE VALLEY  CLOUDY    52  19  28 S15G21    29.58F
WENDOVER       MOCLDY    52  23  32 W29G37    29.58S HAZE
HEBER CITY       N/A     43  12  28 SW15G30   29.63F
WEST JORDAN    CLOUDY    47  19  32 SE24G37   29.60F

$$

UTZ011>015-024>027-181600-

CENTRAL/NORTHEAST UTAH

CITY           SKY/WX    TMP DP  RH WIND       PRES   REMARKS
PROVO AIRPORT  CLOUDY    48  20  32 VRB6G16   29.67F
MOAB/CANYONLAN CLEAR     46  22  38 SE10      29.74F
DELTA          PTCLDY    41  16  36 S26G33    29.70F
PRICE          CLEAR     30  18  60 CALM      29.74S
RICHFIELD      CLEAR     45  12  26 SW26      29.72F
ROOSEVELT      CLEAR     28  14  54 N5        29.70R WCI  23
VERNAL         PTCLDY    28  15  58 W5        29.68F WCI  23

$$

UTZ013>016-019>022-027-181600-

SOUTHERN UTAH

CITY           SKY/WX    TMP DP  RH WIND       PRES   REMARKS
BRYCE CANYON   CLEAR     27  18  69 S5        29.88F WCI  22
CEDAR CITY     CLEAR     38  21  50 W9        29.80F WCI  31
MILFORD        CLEAR     40  18  41 S23G32    29.78F WCI  30
ST GEORGE      CLOUDY    35  31  85 CALM      29.89F
HANKSVILLE     CLEAR     36  19  51 SE3       29.77S
KANAB          CLEAR     27  25  93 CALM      29.95F
BLANDING         N/A     32  17  53 NE7       30.01S WCI  26

$$

REGIONAL REPORTS     COLORADO/ARIZONA

CITY           SKY/WX    TMP DP  RH WIND       PRES   REMARKS
CRAIG, CO      CLEAR     39  16  39 W8        29.67R WCI  33
GRAND JUNCTION CLEAR     34  22  61 E7        29.78F WCI  28
RIFLE, CO      SUNNY     22  17  81 SE6       29.78F WCI  14
MONTROSE, CO   SUNNY     33  17  51 SE12      29.87F WCI  24
CORTEZ, CO     SUNNY     23  17  78 CALM      29.96S
COLORADO CITY    N/A     28  27  93 CALM      29.93F
PAGE, AZ       CLEAR     39  24  55 CALM      29.89F
GRAND CANYON   CLOUDY    34  34 100 SW7       29.98F WCI  28
KINGMAN, AZ    CLEAR     40  27  59 SE8       29.94F WCI  34
FLAGSTAFF, AZ  PTCLDY    34  32  92 SW10      30.00F WCI  26

$$

REGIONAL REPORTS    NEVADA/IDAHO/WYOMING

CITY           SKY/WX    TMP DP  RH WIND       PRES   REMARKS
LAS VEGAS, NV  PTCLDY    46  22  38 W3        29.83F
ELY, NY        CLEAR     37  10  32 S12       29.71F WCI  29
ELKO, NV       CLOUDY    45  24  43 W25G36    29.59F
POCATELLO, ID  CLOUDY    33  30  88 SW26      29.57F WCI  20
BURLEY, ID     SNOW      32  32 100 SW10      29.62R VSB 1/2 WCI  24
FORT BRIDGER,    N/A     41  15  34 W37G49    29.55R
EVANSTON, WY   CLOUDY    38  15  39 SW25G43   29.56F WCI  27
ROCK SPRINGS,  PTCLDY    37  12  35 SW15      29.53S WCI  28

$$




USA.gov is the U.S. government's official web portal to all federal, state and local government web resources and services.